Find Global-18

NORAD ID: 52196 Int'l Des: 2022-034 Owner: BSKG Country: US operational
LEOCIRCULAR

实时位置

正在加载3D地球...

关于 Global-18

正在加载描述...

即将过境

Passes for default location (London). Set your location on the main map for personalized predictions.

高度历史

Loading altitude history...

两行轨道根数

1 52196U 22034B 26106.93095566 .00012167 00000-0 27227-3 0 9992
2 52196 52.9823 188.8328 0005520 58.8166 301.3378 15.43899133227493
Epoch: Apr 16, 2026 • Age: 10 hours

当前状态

高度 433.8 km
速度 7.66 km/s
星下点 36.75°N, 102.57°W
发射日期 Apr 2, 2022
运行时间 4 years
类型 earth observation

技术详情

分类 Payload
质量 55.00 kg
干质量 50.00 kg
总质量 55.00 kg
长度 1.00 m
直径 0.50 m
跨度 1.00 m
形状 Box
制造商 LEOSTL
平台类型 BSky
阶段状态 In Orbit
所有者/国家 BSKG/US

Most Searched